Joliet, IL

10:29 PM CDT on September 22, 2017 (GMT -0500)
Joliet Regional

Weather History for KJOT - March, 2013

Change the Weather History Date:

Wednesday, March 27, 2013

  Actual Average (KARR) Record (KARR)
Temperature  
Mean Temperature 34 °F -  
Max Temperature 42 °F 51 °F 75 °F (2007)
Min Temperature 25 °F 31 °F 16 °F (2001)
Degree Days  
Heating Degree Days 31    
Moisture  
Dew Point 22 °F    
Average Humidity 62    
Maximum Humidity 86    
Minimum Humidity 36    
Precipitation  
Precipitation 0.00 in - - ()
Sea Level Pressure  
Sea Level Pressure 30.30 in    
Wind  
Wind Speed 3 mph (WNW)    
Max Wind Speed 9 mph    
Max Gust Speed -    
Visibility 10 miles    
Events      
Averages and records for this station are not official NWS values.
T = Trace of Precipitation, MM = Missing Value Source: NWS Daily Summary

Daily Weather History Graph

Daily Weather History Graph

Search for Another Location

Airport or City:

Trip Planner

Search our weather history database for the weather conditions in past years. The results will help you decide how hot, cold, wet, or windy it might be!

Date:

Astronomy

Mar. 27, 2013 Rise Set
Actual Time 6:43 AM CDT 7:12 PM CDT
Civil Twilight 6:15 AM CDT 7:40 PM CDT
Nautical Twilight 5:43 AM CDT 8:13 PM CDT
Astronomical Twilight 5:09 AM CDT 8:47 PM CDT
Moon 7:57 PM CDT (3/27) 6:34 AM CDT (3/27)
Length of Visible Light 13h 24m
Length of Day
12h 29m
Full, 100% of the Moon is Illuminated
Mar 27
Full
Apr 2
Last Quarter
Apr 10
New
Apr 18
First Quarter
Apr 25
Full

Hourly Weather History & Observations

Time (CDT) Temp. Windchill Dew Point Humidity Pressure Visibility Wind Dir Wind Speed Gust Speed Precip Events Conditions
12:15 AM 30.2 °F - 26.4 °F 86% 30.26 in 10.0 mi Calm Calm - N/A   Clear
12:35 AM 30.2 °F - 26.6 °F 86% 30.26 in 10.0 mi Calm Calm - N/A   Scattered Clouds
12:55 AM 30.2 °F - 26.4 °F 86% 30.26 in 10.0 mi Calm Calm - N/A   Scattered Clouds
1:15 AM 30.7 °F - 26.4 °F 84% 30.26 in 10.0 mi Calm Calm - N/A   Scattered Clouds
1:35 AM 30.2 °F - 26.2 °F 85% 30.27 in 10.0 mi Calm Calm - N/A   Clear
2:15 AM 30.0 °F - 26.1 °F 85% 30.27 in 10.0 mi Calm Calm - N/A   Overcast
2:35 AM 30.9 °F 27.5 °F 26.2 °F 83% 30.27 in 10.0 mi WNW 3.5 mph - N/A   Overcast
2:55 AM 31.1 °F 27.7 °F 26.4 °F 83% 30.27 in 10.0 mi WNW 3.5 mph - N/A   Overcast
3:15 AM 30.9 °F - 26.2 °F 83% 30.27 in 10.0 mi Calm Calm - N/A   Overcast
3:35 AM 30.2 °F - 26.6 °F 86% 30.26 in 10.0 mi Calm Calm - N/A   Overcast
3:55 AM 30.7 °F - 25.9 °F 82% 30.26 in 10.0 mi Calm Calm - N/A   Mostly Cloudy
4:15 AM 31.1 °F 27.7 °F 26.4 °F 83% 30.26 in 10.0 mi WNW 3.5 mph - N/A   Mostly Cloudy
4:35 AM 31.5 °F 26.8 °F 26.4 °F 82% 30.26 in 10.0 mi WNW 4.6 mph - N/A   Overcast
4:55 AM 32.0 °F 28.7 °F 26.4 °F 80% 30.26 in 10.0 mi WNW 3.5 mph - N/A   Overcast
5:15 AM 32.0 °F 28.7 °F 26.2 °F 79% 30.26 in 10.0 mi WNW 3.5 mph - N/A   Overcast
5:35 AM 32.0 °F 27.5 °F 26.6 °F 80% 30.26 in 10.0 mi WNW 4.6 mph - N/A   Overcast
5:55 AM 32.0 °F 27.5 °F 25.9 °F 78% 30.27 in 10.0 mi WNW 4.6 mph - N/A   Overcast
6:15 AM 32.0 °F 28.7 °F 25.7 °F 78% 30.27 in 10.0 mi NW 3.5 mph - N/A   Overcast
6:35 AM 32.0 °F 28.7 °F 26.6 °F 80% 30.28 in 10.0 mi WNW 3.5 mph - N/A   Overcast
6:55 AM 32.0 °F 27.5 °F 26.1 °F 79% 30.29 in 10.0 mi WNW 4.6 mph - N/A   Overcast
7:15 AM 32.0 °F 27.5 °F 26.2 °F 79% 30.29 in 10.0 mi WNW 4.6 mph - N/A   Overcast
7:35 AM 32.4 °F 29.1 °F 26.2 °F 78% 30.30 in 10.0 mi WNW 3.5 mph - N/A   Overcast
7:55 AM 32.9 °F 28.5 °F 26.6 °F 78% 30.31 in 10.0 mi WNW 4.6 mph - N/A   Overcast
8:15 AM 33.4 °F 30.4 °F 26.6 °F 76% 30.31 in 10.0 mi WNW 3.5 mph - N/A   Overcast
8:35 AM 34.3 °F 31.4 °F 26.6 °F 73% 30.31 in 10.0 mi WNW 3.5 mph - N/A   Overcast
8:55 AM 35.6 °F 32.8 °F 26.4 °F 69% 30.31 in 10.0 mi WNW 3.5 mph - N/A   Overcast
9:15 AM 36.5 °F 31.8 °F 26.2 °F 66% 30.31 in 10.0 mi WNW 5.8 mph - N/A   Overcast
9:35 AM 38.1 °F 33.7 °F 25.7 °F 61% 30.31 in 10.0 mi NW 5.8 mph - N/A   Overcast
9:55 AM 38.7 °F 33.6 °F 23.5 °F 55% 30.31 in 10.0 mi NW 6.9 mph - N/A   Overcast
10:15 AM 39.7 °F 34.9 °F 21.6 °F 48% 30.31 in 10.0 mi WNW 6.9 mph - N/A   Overcast
10:35 AM 40.6 °F 36.0 °F 16.7 °F 38% 30.31 in 10.0 mi WNW 6.9 mph - N/A   Overcast
10:55 AM 41.2 °F 37.3 °F 17.6 °F 39% 30.32 in 10.0 mi West 5.8 mph - N/A   Overcast
11:15 AM 40.6 °F 36.0 °F 17.1 °F 39% 30.32 in 10.0 mi West 6.9 mph - N/A   Mostly Cloudy
11:35 AM 40.8 °F 36.9 °F 15.4 °F 36% 30.32 in 10.0 mi WNW 5.8 mph - N/A   Overcast
11:55 AM 39.9 °F 35.1 °F 17.1 °F 40% 30.32 in 10.0 mi WNW 6.9 mph - N/A   Overcast
12:15 PM 41.2 °F 39.2 °F 17.1 °F 38% 30.32 in 10.0 mi NNW 3.5 mph - N/A   Overcast
12:35 PM 41.9 °F 37.5 °F 16.9 °F 36% 30.32 in 10.0 mi WNW 6.9 mph - N/A   Overcast
12:55 PM 41.4 °F 37.6 °F 16.0 °F 36% 30.32 in 10.0 mi WNW 5.8 mph - N/A   Overcast
1:15 PM 41.9 °F 38.2 °F 16.3 °F 36% 30.31 in 10.0 mi West 5.8 mph - N/A   Overcast
1:35 PM 41.9 °F 38.2 °F 17.6 °F 38% 30.31 in 10.0 mi WNW 5.8 mph - N/A   Overcast
1:55 PM 41.7 °F 38.8 °F 18.5 °F 39% 30.31 in 10.0 mi WNW 4.6 mph - N/A   Overcast
2:15 PM 41.4 °F 36.8 °F 19.2 °F 41% 30.31 in 10.0 mi West 6.9 mph - N/A   Overcast
2:35 PM 41.9 °F 36.9 °F 20.3 °F 42% 30.30 in 10.0 mi NNW 8.1 mph - N/A   Overcast
2:55 PM 41.9 °F 38.2 °F 20.3 °F 42% 30.30 in 10.0 mi NNW 5.8 mph - N/A   Overcast
3:15 PM 41.9 °F 38.2 °F 19.9 °F 42% 30.30 in 10.0 mi NW 5.8 mph - N/A   Overcast
3:35 PM 42.8 °F 38.0 °F 21.2 °F 42% 30.30 in 10.0 mi West 8.1 mph - N/A   Overcast
3:55 PM 41.9 °F 38.2 °F 19.8 °F 41% 30.30 in 10.0 mi WNW 5.8 mph - N/A   Overcast
4:15 PM 41.5 °F 38.6 °F 19.9 °F 42% 30.30 in 10.0 mi NW 4.6 mph - N/A   Overcast
4:35 PM 41.2 °F 36.0 °F 20.1 °F 43% 30.29 in 10.0 mi NNW 8.1 mph - N/A   Overcast
4:55 PM 41.5 °F 35.9 °F 20.8 °F 44% 30.29 in 10.0 mi WNW 9.2 mph - N/A   Overcast
5:15 PM 41.2 °F 39.2 °F 20.5 °F 44% 30.30 in 10.0 mi NW 3.5 mph - N/A   Overcast
5:35 PM 41.0 °F 36.4 °F 20.3 °F 44% 30.29 in 10.0 mi NNW 6.9 mph - N/A   Overcast
5:55 PM 41.0 °F 38.0 °F 20.3 °F 44% 30.29 in 10.0 mi WNW 4.6 mph - N/A   Overcast
6:15 PM 41.0 °F 38.0 °F 20.3 °F 44% 30.29 in 10.0 mi WNW 4.6 mph - N/A   Overcast
6:35 PM 40.5 °F 37.3 °F 20.8 °F 46% 30.29 in 10.0 mi NNW 4.6 mph - N/A   Overcast
6:55 PM 39.7 °F 36.5 °F 21.6 °F 48% 30.30 in 10.0 mi NNW 4.6 mph - N/A   Overcast
7:15 PM 39.4 °F 37.2 °F 22.3 °F 50% 30.30 in 10.0 mi NNW 3.5 mph - N/A   Overcast
7:35 PM 39.0 °F 35.7 °F 21.2 °F 49% 30.30 in 10.0 mi NNW 4.6 mph - N/A   Overcast
7:55 PM 37.9 °F - 19.4 °F 47% 30.30 in 10.0 mi Calm Calm - N/A   Scattered Clouds
8:15 PM 37.0 °F - 19.6 °F 49% 30.31 in 10.0 mi Calm Calm - N/A   Clear
8:35 PM 32.9 °F - 20.1 °F 59% 30.31 in 10.0 mi Calm Calm - N/A   Clear
8:55 PM 30.4 °F - 21.6 °F 70% 30.31 in 10.0 mi Calm Calm - N/A   Clear
9:15 PM 29.7 °F - 20.3 °F 68% 30.32 in 10.0 mi Calm Calm - N/A   Clear
9:35 PM 29.3 °F - 21.7 °F 73% 30.32 in 10.0 mi Calm Calm - N/A   Clear
9:55 PM 28.2 °F - 20.5 °F 73% 30.32 in 10.0 mi Calm Calm - N/A   Clear
10:15 PM 27.5 °F - 20.8 °F 76% 30.32 in 10.0 mi Calm Calm - N/A   Clear
10:35 PM 27.3 °F - 20.7 °F 76% 30.32 in 10.0 mi Calm Calm - N/A   Clear
10:55 PM 26.2 °F - 20.1 °F 78% 30.32 in 10.0 mi Calm Calm - N/A   Clear
11:15 PM 26.2 °F - 20.3 °F 78% 30.32 in 10.0 mi Calm Calm - N/A   Clear
11:35 PM 26.1 °F - 21.4 °F 82% 30.32 in 10.0 mi Calm Calm - N/A   Clear
11:55 PM 25.3 °F - 21.6 °F 86% 30.32 in 10.0 mi Calm Calm - N/A   Clear